Regional Weather Roundup
Issued by NWS

Home | Current Version | Previous Version | Text Only | Print | Product List | Glossary On
Versions: 1 2 3 4 5 6 7 8 9 10 11 12 13 14 15 16 17 18 19 20 21 22 23 24 25 26 27 28 29 30 31 32 33 34 35 36 37 38 39 40 41 42 43 44 45 46 47 48 49 50
000
ASUS43 KMPX 290410
RWRMN
WEATHER ROUNDUP FOR MINNESOTA
NATIONAL WEATHER SERVICE TWIN CITIES/CHANHASSEN MN
1100 PM CDT THU APR 28 2016


NOTE: "FAIR" INDICATES FEW OR NO CLOUDS BELOW 12,000 FEET WITH NO
SIGNIFICANT WEATHER AND/OR OBSTRUCTIONS TO VISIBILITY. N/A MEANS
CURRENT SKY AND/OR WEATHER CONDITIONS ARE NOT AVAILABLE.

MNZ060>063-068>070-290500-
   Twin Cities Metro

CITY           SKY/WX    TMP DP  RH WIND       PRES   REMARKS
TWIN CITIES    LGT RAIN  40  37  89 E6        30.14R
ST PAUL        LGT RAIN  41  38  89 SE3       30.15S
CRYSTAL        LGT RAIN  42  39  89 CALM      30.13R
BLAINE         DRIZZLE   43  43 100 CALM      30.13S
EDEN PRAIRIE   LGT RAIN  41  36  82 E7        30.13R
SOUTH ST PAUL  LGT RAIN  39  38  96 CALM      30.14S
LAKE ELMO      DRIZZLE   39  37  93 CALM      30.14R
$$
MNZ001>005-007-008-013>017-022>024-027-028-290500-
   Northwest Minnesota

CITY           SKY/WX    TMP DP  RH WIND       PRES   REMARKS
BEMIDJI        CLOUDY    39  28  66 CALM      30.13S
HALLOCK        PTCLDY    41  28  60 N3        30.18R
ROSEAU         CLOUDY    43  30  61 NE3       30.18S
WARROAD        PTCLDY    43  30  61 NE6       30.19R
THIEF RVR FALL CLEAR     45  21  39 NE5       30.17S
CROOKSTON      CLOUDY    46  25  42 E8        30.16S
FOSSTON        CLOUDY    43  30  61 NE8       30.14S
DETROIT LAKES  PTCLDY    46  32  57 N3        30.13S
MOORHEAD       CLOUDY    48  30  49 NE7       30.13S
PARK RAPIDS    PTCLDY    47  24  40 E3        30.12R
MAHNOMEN       FAIR      43  29  58 NE6       30.13R
$$
MNZ006-009>011-018-025>026-290500-
   North Central Minnesota

CITY           SKY/WX    TMP DP  RH WIND       PRES   REMARKS
BAUDETTE       PTCLDY    44  27  51 NE8       30.17R
FLAG ISLAND    PTCLDY    45  30  57 NE3       30.18R
INTL FALLS     PTCLDY    43  29  57 NE7       30.15S
WASKISH        CLEAR     45  30  57 NE5       30.15S
BIG FORK       CLEAR     34  27  75 CALM      30.13S
LONGVILLE      PTCLDY    37  30  75 SE3       30.13R
GRAND RAPIDS   CLOUDY    39  21  48 S6        30.14S
CRANE LAKE     CLEAR     32  28  86 CALM      30.16S
ORR            CLEAR     36  27  69 CALM      30.11S
COOK           CLEAR     37  28  70 CALM      30.13S
WALKER         FAIR      45  29  54 CALM      30.13R
$$
MNZ012-019>021-037-290500-
   Northeast Minnesota

CITY           SKY/WX    TMP DP  RH WIND       PRES   REMARKS
DULUTH         PTCLDY    35  25  66 NE5       30.12F WCI  31
ELY            CLEAR     36  27  69 CALM      30.13F
HIBBING        CLOUDY    34  25  69 CALM      30.14R
EVELETH        PTCLDY    34  27  75 CALM      30.15S
DULUTH HARBOR  PTCLDY    37  34  87 E9        30.16S
TWO HARBORS    CLOUDY    37  28  70 N3        30.12F
SILVER BAY     PTCLDY    34  27  75 CALM      30.12F
GRAND MARAIS     N/A     32  27  81 CALM      30.15S
G MARAIS ARPRT CLOUDY    32  21  64 N6        30.13S WCI  26
$$
MNZ029>031-032-039>041-046>048-054>057-064-290500-
   West Central Minnesota

CITY           SKY/WX    TMP DP  RH WIND       PRES   REMARKS
FERGUS FALLS   CLOUDY    43  37  81 SW7       30.13R
WHEATON        CLOUDY    45  41  87 CALM      30.17R
MORRIS         CLOUDY    41  39  93 CALM      30.14R
ALEXANDRIA     CLOUDY    41  37  86 S3        30.15R
ELBOW LAKE     CLOUDY    41  39  91 S5        30.15R
WADENA         PTCLDY    43  37  81 SW3       30.12S
GLENWOOD       CLOUDY    39  37  93 CALM      30.15R
APPLETON       CLOUDY    43  37  81 CALM      30.14S
BENSON         CLOUDY    41  36  81 CALM      30.15S
ORTONVILLE     CLOUDY    41  37  87 CALM      30.15R
MADISON        CLOUDY    41  39  93 SE5       30.15R
WILLMAR        DRIZZLE   39  39 100 SE6       30.15S
$$
MNZ033>034-036-042>043-049>051-058-059-290500-
   Central Minnesota

CITY           SKY/WX    TMP DP  RH WIND       PRES   REMARKS
ST CLOUD       CLOUDY    41  39  93 CALM      30.13R
SAUK CENTRE    CLOUDY    39  38  94 CALM      30.15R
PAYNESVILLE    MIX PCPN  39  40 100 S3        30.15R
AITKIN         PTCLDY    41  23  48 CALM      30.13R
PINE RIVER     MOCLDY    39  28  65 CALM      30.17R
BRAINERD       CLOUDY    45  19  35 E3        30.14R
STAPLES        PTCLDY    45  36  70 CALM      30.13R
LONG PRAIRIE   CLOUDY    39  36  87 SW3       30.14S
LITTLE FALLS   CLOUDY    41  36  81 CALM      30.14R
LITCHFIELD     DRIZZLE   39  39 100 CALM      30.14S
BUFFALO        DRIZZLE   39  37  92 CALM      30.15S
MAPLE LAKE     LGT RAIN  41  40  97 CALM      30.15R
HUTCHINSON     DRIZZLE   38  37  97 CALM      30.15S
$$
MNZ037-044-045-052-053-290500-
   East Central Minnesota

CITY           SKY/WX    TMP DP  RH WIND       PRES   REMARKS
PRINCETON      CLOUDY    43  39  87 CALM      30.13S
MORA           CLOUDY    41  27  56 CALM      30.15R
CAMBRIDGE      CLOUDY    43  36  75 CALM      30.11S
RUSH CITY      CLOUDY    42  32  68 NE3       30.13R
MOOSE LAKE     CLOUDY    37  28  70 E3        30.13R
HINCKLEY       FAIR      39  30  70 NE5       30.13R
CLOQUET        CLOUDY    34  25  69 CALM      30.13S
MCGREGOR       CLOUDY    41  28  60 CALM      30.14S
$$
MNZ071>073-080-081-089-090-097-098-290500-
   Southwest Minnesota

CITY           SKY/WX    TMP DP  RH WIND       PRES   REMARKS
MONTEVIDEO     DRIZZLE   39  39 100 S5        30.15F
GRANITE FALLS  CLOUDY    41  38  91 E3        30.16R
CANBY          CLOUDY    42  41  97 CALM      30.15F
MARSHALL       CLOUDY    40  37  89 E7        30.14S
REDWOOD FALLS  CLOUDY    39  36  89 E3        30.14R
OLIVIA         DRIZZLE   39  36  87 E3        30.13F
PIPESTONE      CLOUDY    39  37  93 NE5       30.10R
WINDOM         CLOUDY    39  37  93 NE10      30.10S
WORTHINGTON    CLOUDY    38  37  97 NE7       30.11R FOG
JACKSON        CLOUDY    39  36  87 NE9       30.10R
TRACY          CLOUDY    39  39  98 NE8       30.13S
SLAYTON        CLOUDY    37  37 100 NE10      30.11S
$$
MNZ065>067-074>077-082>085-091>093-290500-
   South Central Minnesota

CITY           SKY/WX    TMP DP  RH WIND       PRES   REMARKS
MANKATO        CLOUDY    41  36  81 NE10      30.12S
NEW ULM        DRIZZLE   39  37  93 NE10      30.13R
ST JAMES       CLOUDY    36  34  93 N8        30.12S
FAIRMONT       CLOUDY    39  30  70 NE12      30.09S
GLENCOE        CLOUDY    38  37  98 CALM      30.14S
FARIBAULT      CLOUDY    37  36  93 N8        30.12R
OWATONNA       DRIZZLE   37  36  93 E8        30.11R
WASECA         CLOUDY    39  36  87 NE7       30.11S FOG
ALBERT LEA     CLOUDY    39  39 100 NE9       30.07F
$$
MNZ078>079-086>088-094>096-290500-
   Southeast Minnesota

CITY           SKY/WX    TMP DP  RH WIND       PRES   REMARKS
ROCHESTER      LGT RAIN  38  38 100 NE12      30.09R FOG
RED WING       RAIN      37  36  93 E3        30.12S
STANTON        RAIN      39  36  89 NE5       30.12R
DODGE CENTER   RAIN      37  37 100 NE6       30.10R
WINONA         CLOUDY    41  36  81 CALM      30.12S
AUSTIN         CLOUDY    39  37  93 N6        30.07F
PRESTON        LGT RAIN  38  37  94 NE12      30.08R
$$
ABBREVIATIONS USED IN REMARKS
   TC - TEMPERATURES IN CELSIUS
  WCI - WIND CHILL INDEX
   HX - HEAT INDEX
  VSB - VISIBILITY
$$



USA.gov is the U.S. government's official web portal to all federal, state and local government web resources and services.